CHH6924 ZJHK-ZHCC

Flight info

Callsign CHH6924
Flight time N/A
Altitude 38100
Route AGTEL W71 LH R339 BHY W159 IVPUB W120 ENKUS R343 GOSMA W82 UPMAT W56 IGMIG
Aircraft A346/H-SDE2E3FGHIJ3J4J5M1RWXY/LB1D1

Departure

Time N/A
Airport Haikou Meilan International Airport (ZJHK)

Arrival

Time 2026-05-07 14:53
Airport Zhengzhou Xinzheng International Airport (ZHCC)
Time Latitude Longitude Altitude Speed Heading
2026-05-07 14:18 31.94293 114.34916 38241 ft 469 kts 351°
2026-05-07 14:18 32.00810 114.35112 38240 ft 469 kts 351°
2026-05-07 14:19 32.07281 114.35308 38250 ft 468 kts 351°
2026-05-07 14:19 32.13792 114.35504 38241 ft 468 kts 351°
2026-05-07 14:20 32.20298 114.35700 38245 ft 468 kts 351°
2026-05-07 14:20 32.26815 114.35971 38243 ft 471 kts 353°
2026-05-07 14:21 32.33319 114.36544 38259 ft 472 kts 354°
2026-05-07 14:21 32.39874 114.37154 38252 ft 473 kts 354°
2026-05-07 14:22 32.46432 114.37758 38250 ft 472 kts 354°
2026-05-07 14:22 32.52942 114.38354 38292 ft 472 kts 354°
2026-05-07 14:23 32.59495 114.38954 38257 ft 472 kts 354°
2026-05-07 14:23 32.66039 114.39553 38256 ft 472 kts 354°
2026-05-07 14:24 32.72585 114.40164 38258 ft 472 kts 354°
2026-05-07 14:24 32.79137 114.40777 38274 ft 471 kts 354°
2026-05-07 14:25 32.85619 114.41382 38261 ft 470 kts 354°
2026-05-07 14:25 32.92143 114.41990 38267 ft 470 kts 354°
2026-05-07 14:26 32.98669 114.42600 38265 ft 470 kts 354°
2026-05-07 14:26 33.05148 114.43208 38276 ft 470 kts 354°
2026-05-07 14:27 33.11678 114.43818 38271 ft 471 kts 354°
2026-05-07 14:27 33.18194 114.44337 38248 ft 462 kts 348°
2026-05-07 14:27 33.21327 114.43904 37785 ft 447 kts 337°
2026-05-07 14:28 33.24231 114.42762 37093 ft 433 kts 326°
2026-05-07 14:28 33.26822 114.41038 36461 ft 421 kts 317°
2026-05-07 14:28 33.29052 114.38846 35820 ft 411 kts 308°
2026-05-07 14:28 33.30868 114.36316 35207 ft 403 kts 300°
2026-05-07 14:29 33.32356 114.33499 34603 ft 399 kts 294°
2026-05-07 14:29 33.33702 114.30594 33969 ft 400 kts 295°
2026-05-07 14:29 33.35210 114.27776 33285 ft 405 kts 300°
2026-05-07 14:29 33.36991 114.25120 32618 ft 414 kts 306°
2026-05-07 14:30 33.39074 114.22676 31974 ft 424 kts 313°
2026-05-07 14:30 33.41445 114.20510 31341 ft 433 kts 320°
2026-05-07 14:30 33.44042 114.18707 30732 ft 443 kts 327°
2026-05-07 14:30 33.46914 114.17267 30103 ft 452 kts 334°
2026-05-07 14:31 33.49954 114.16195 29405 ft 457 kts 338°
2026-05-07 14:31 33.53037 114.15208 28713 ft 460 kts 339°
2026-05-07 14:31 33.56147 114.14240 28054 ft 461 kts 339°
2026-05-07 14:31 33.59240 114.13286 27401 ft 458 kts 339°
2026-05-07 14:32 33.62321 114.12332 26758 ft 455 kts 339°
2026-05-07 14:32 33.65378 114.11383 26130 ft 453 kts 339°
2026-05-07 14:32 33.68420 114.10437 25513 ft 450 kts 339°
2026-05-07 14:32 33.71400 114.09508 24917 ft 447 kts 339°
2026-05-07 14:33 33.74421 114.08565 24309 ft 443 kts 339°
2026-05-07 14:33 33.77390 114.07638 23656 ft 437 kts 339°
2026-05-07 14:33 33.80306 114.06723 22966 ft 430 kts 339°
2026-05-07 14:33 33.83183 114.05812 22306 ft 424 kts 341°
2026-05-07 14:34 33.86020 114.04923 21630 ft 418 kts 341°
2026-05-07 14:34 33.88820 114.04049 20987 ft 413 kts 342°
2026-05-07 14:34 33.91589 114.03184 20350 ft 409 kts 342°
2026-05-07 14:34 33.94287 114.02341 19733 ft 404 kts 343°
2026-05-07 14:35 33.97011 114.01488 19147 ft 402 kts 343°
2026-05-07 14:35 33.99711 114.00640 18405 ft 398 kts 344°
2026-05-07 14:35 34.02375 113.99807 17651 ft 390 kts 344°
2026-05-07 14:35 34.04986 113.98992 16932 ft 386 kts 344°
2026-05-07 14:36 34.07574 113.98181 16226 ft 382 kts 344°
2026-05-07 14:36 34.10111 113.97284 15521 ft 378 kts 337°
2026-05-07 14:36 34.12364 113.95697 14841 ft 374 kts 322°
2026-05-07 14:36 34.14150 113.93495 14189 ft 373 kts 308°
2026-05-07 14:37 34.15429 113.90777 13503 ft 372 kts 295°
2026-05-07 14:37 34.17408 113.85020 13034 ft 371 kts 295°
2026-05-07 14:37 34.18393 113.82124 12798 ft 371 kts 295°
2026-05-07 14:38 34.19376 113.79233 12293 ft 367 kts 295°
2026-05-07 14:38 34.20330 113.76423 11742 ft 352 kts 295°
2026-05-07 14:38 34.21239 113.73751 11560 ft 335 kts 295°
2026-05-07 14:38 34.22108 113.71198 11077 ft 321 kts 295°
2026-05-07 14:39 34.22929 113.68785 10586 ft 308 kts 296°
2026-05-07 14:39 34.23730 113.66431 10107 ft 297 kts 296°
2026-05-07 14:39 34.24507 113.64159 9572 ft 288 kts 296°
2026-05-07 14:39 34.25261 113.61956 9117 ft 278 kts 296°
2026-05-07 14:40 34.25983 113.59838 8729 ft 267 kts 296°
2026-05-07 14:40 34.26692 113.57812 8391 ft 258 kts 301°
2026-05-07 14:40 34.27862 113.56242 8046 ft 252 kts 327°
2026-05-07 14:40 34.29384 113.55213 7730 ft 251 kts 347°
2026-05-07 14:41 34.31096 113.55210 7378 ft 254 kts 13°
2026-05-07 14:41 34.32792 113.55867 6959 ft 257 kts 16°
2026-05-07 14:41 34.34497 113.56552 6525 ft 260 kts 16°
2026-05-07 14:41 34.36234 113.57228 6066 ft 264 kts 16°
2026-05-07 14:42 34.37992 113.57899 5607 ft 267 kts 16°
2026-05-07 14:42 34.39775 113.58570 5148 ft 269 kts 16°
2026-05-07 14:42 34.41554 113.59236 4701 ft 265 kts 17°
2026-05-07 14:42 34.43295 113.59888 4318 ft 260 kts 17°
2026-05-07 14:43 34.45013 113.60526 3988 ft 257 kts 15°
2026-05-07 14:43 34.46732 113.60654 3908 ft 250 kts 348°
2026-05-07 14:43 34.48300 113.59747 3919 ft 254 kts 320°
2026-05-07 14:43 34.49340 113.58023 3927 ft 257 kts 295°
2026-05-07 14:44 34.50023 113.56019 3926 ft 257 kts 293°
2026-05-07 14:44 34.50677 113.54003 3923 ft 257 kts 292°
2026-05-07 14:44 34.51340 113.51968 3919 ft 257 kts 293°
2026-05-07 14:44 34.52009 113.49950 3919 ft 257 kts 293°
2026-05-07 14:45 34.52816 113.48028 3845 ft 256 kts 313°
2026-05-07 14:45 34.54265 113.46857 3554 ft 251 kts 346°
2026-05-07 14:45 34.55941 113.46768 3254 ft 245 kts 15°
2026-05-07 14:45 34.57516 113.47476 3035 ft 238 kts 25°
2026-05-07 14:46 34.59007 113.48251 2997 ft 226 kts 25°
2026-05-07 14:46 34.60409 113.48975 2979 ft 213 kts 26°
2026-05-07 14:46 34.61618 113.49976 2976 ft 209 kts 52°
2026-05-07 14:46 34.62185 113.51566 3011 ft 208 kts 83°
2026-05-07 14:47 34.62123 113.53317 3055 ft 207 kts 100°
2026-05-07 14:47 34.61727 113.55010 3034 ft 208 kts 108°
2026-05-07 14:47 34.61230 113.56666 3017 ft 209 kts 110°
2026-05-07 14:47 34.60699 113.58307 3012 ft 209 kts 111°
2026-05-07 14:48 34.60156 113.59928 3007 ft 209 kts 111°
2026-05-07 14:48 34.59604 113.61554 3006 ft 209 kts 111°
2026-05-07 14:48 34.59046 113.63188 3019 ft 208 kts 111°
2026-05-07 14:48 34.58492 113.64810 3007 ft 208 kts 111°
2026-05-07 14:49 34.57950 113.66398 3008 ft 195 kts 111°
2026-05-07 14:49 34.57462 113.67829 2967 ft 171 kts 111°
2026-05-07 14:49 34.57024 113.69114 2865 ft 162 kts 110°
2026-05-07 14:49 34.56605 113.70350 2647 ft 160 kts 110°
2026-05-07 14:50 34.56182 113.71595 2427 ft 159 kts 110°
2026-05-07 14:50 34.55762 113.72833 2208 ft 158 kts 110°
2026-05-07 14:50 34.55343 113.74067 2016 ft 158 kts 110°
2026-05-07 14:50 34.54925 113.75299 1786 ft 157 kts 110°
2026-05-07 14:51 34.54509 113.76524 1584 ft 157 kts 110°
2026-05-07 14:51 34.54095 113.77745 1361 ft 156 kts 109°
2026-05-07 14:51 34.53681 113.78960 1183 ft 156 kts 110°
2026-05-07 14:51 34.53269 113.80175 944 ft 155 kts 110°
2026-05-07 14:52 34.52869 113.81381 731 ft 153 kts 110°
2026-05-07 14:52 34.52472 113.82555 534 ft 151 kts 111°
2026-05-07 14:52 34.52127 113.83577 508 ft 99 kts 112°
2026-05-07 14:52 34.51940 113.84107 508 ft 50 kts 112°
2026-05-07 14:53 34.51811 113.84496 509 ft 46 kts 105°
2026-05-07 14:53 34.51785 113.84792 511 ft 28 kts 80°
2026-05-07 14:53 34.51834 113.84918 513 ft 15 kts 36°